カタログに戻る

GAOFEN 12 (02)

運用中科学SSO
NORAD 48079·PAYLOAD·🇨🇳 China

打ち上げ Mar 30, 2021 から Jiuquan Satellite Launch Center

Loading…

次のパス (今後24時間)

TLE

最新Source: Space-Track

元期: Sep 14, 2026, 23:46 UTC

1 48079U 21026A   26257.99042502  .00000278  00000-0  43329-4 0  9994
2 48079  97.9996 255.8365 0003737 317.6570  42.4353 14.80354817295044

AllMySatでGAOFEN 12 (02)をリアルタイム追跡

Download on the App Store